Regional Weather Roundup
Issued by NWS

Home | Current Version | Previous Version | Text Only | Print | Product List | Glossary Off
Versions: 1 2 3 4 5 6 7 8 9 10 11 12 13 14 15 16 17 18 19 20 21 22 23 24 25 26 27 28 29 30 31 32 33 34 35 36 37 38 39 40 41 42 43 44 45 46 47 48 49 50

000
ASUS43 KTOP 300908
RWRKS

WEATHER ROUNDUP FOR KANSAS
NATIONAL WEATHER SERVICE GOODLAND KS
400 AM CDT TUE AUG 30 2016

NOTE:  "FAIR" INDICATES FEW OR NO CLOUDS BELOW 12,000 FEET WITH NO
SIGNIFICANT WEATHER AND/OR OBSTRUCTIONS TO VISIBILITY.

KSZ001>006-013>018-027>032-041>047-301000-
NORTHWEST KANSAS

CITY           SKY/WX    TMP DP  RH WIND       PRES   REMARKS
GOODLAND       PTCLDY    62  60  93 S6        30.26S
HAYS           MOCLDY    66  59  77 NE6       30.20S
HILL CITY      MOCLDY    67  65  93 CALM      30.21S
RUSSELL        CLOUDY    68  67  96 N6        30.18F FOG
$$

KSZ061>065-074>080-084>089-301000-
SOUTHWEST KANSAS

CITY           SKY/WX    TMP DP  RH WIND       PRES   REMARKS
DODGE CITY     RAIN      67  66  97 E6        30.20F FOG
ELKHART          N/A     65  62  90 SW3         N/A
GARDEN CITY    MOCLDY    66  65  96 CALM      30.22R FOG
GREAT BEND     PTCLDY    66  61  82 N3        30.18F
LIBERAL        CLOUDY    68  63  83 S3        30.23S
PRATT          CLOUDY    66  65  97 CALM      30.18S
$$

KSZ066>073-081>083-090>101-301000-
SOUTHEAST KANSAS

CITY           SKY/WX    TMP DP  RH WIND       PRES   REMARKS
CHANUTE        CLEAR     72  71  97 CALM      30.12F
COFFEYVILLE    CLEAR     71  70  96 CALM      30.11S
HUTCHINSON     CLOUDY    72  69  90 NE5       30.16S
MEDICINE LODGE   N/A     69  68  96 CALM      30.15S
NEWTON         MOCLDY    69  69 100 CALM      30.16S
PARSONS        CLEAR     70  69  97 CALM      30.12F
WICHITA INTL   MOCLDY    74  70  87 NW5       30.14S
WICHITA JABRA  MOCLDY    71  70  96 N3        30.14F
WICHITA MCCONL PTCLDY    74  71  88 E3        30.14S
WINFIELD       CLOUDY    71  69  93 N3        30.13S
$$

KSZ007>012-019>026-033>040-048>060-102>105-301000-
NORTHEAST KANSAS

CITY           SKY/WX    TMP DP  RH WIND       PRES   REMARKS
CONCORDIA      HVY RAIN  68  67  96 NW5       30.20R FOG
EMPORIA        MOCLDY    73  71  93 NE6       30.14S
LAWRENCE       CLOUDY    73  71  93 NE7       30.15S
MANHATTAN      PTCLDY    71  68  90 NE5       30.15S
MARYSVILLE     CLOUDY    68  66  94 CALM      30.16S
OLATHE IND     CLOUDY    72  70  93 NE6       30.15S
OLATHE EXE     TSTM      69  68  96 N15       30.16F FOG
SALINA         MOCLDY    72  70  93 N5        30.16S
TOPEKA BILLARD CLOUDY    72  68  87 E6        30.15S
TOPEKA FORBES  CLOUDY    73  68  84 NE6       30.15F
$$




USA.gov is the U.S. government's official web portal to all federal, state and local government web resources and services.